Location: The Saddle
(36.8333°N, 80.3417°W)
Time: 14:13:53
(UTC-05:00)

deb Explorer IX - All Passes

Search period start: 25 January 2022 00:00
Search period end: 04 February 2022 00:00
Orbit: 544 x 1082 km, 38.8° (Epoch: 24 January)

Date Brightness Start Highest point End Pass type
(mag) Time Alt. Az. Time Alt. Az. Time Alt. Az.
25 Jan - 11:38:42 10° SSW 11:42:35 23° SSE 11:46:07 10° E daylight
25 Jan - 13:24:19 10° WSW 13:28:54 75° SSE 13:33:03 10° ENE daylight
25 Jan - 15:11:18 10° W 15:15:30 65° N 15:19:33 10° E daylight
25 Jan - 16:58:01 10° WNW 17:02:06 79° SSW 17:06:18 10° ESE daylight
25 Jan - 18:45:02 10° W 18:48:18 23° SSW 18:51:47 10° SSE visible
26 Jan - 11:12:43 10° SSW 11:16:44 23° SSE 11:20:23 10° E daylight
26 Jan - 12:58:22 10° WSW 13:03:05 74° SSE 13:07:18 10° ENE daylight
26 Jan - 14:45:24 10° W 14:49:43 66° N 14:53:46 10° E daylight
26 Jan - 16:32:12 10° WNW 16:36:19 80° SSW 16:40:27 10° ESE daylight
26 Jan - 18:19:16 10° W 18:22:31 23° SSW 18:25:54 10° SSE visible
27 Jan - 10:46:42 10° SSW 10:50:53 24° SSE 10:54:39 10° E daylight
27 Jan - 12:32:23 10° WSW 12:37:15 74° SSE 12:41:33 10° ENE daylight
27 Jan - 14:19:30 10° W 14:23:54 66° N 14:28:00 10° E daylight
27 Jan - 16:06:22 10° WNW 16:10:32 81° SSW 16:14:37 10° ESE daylight
27 Jan - 17:53:28 10° W 17:56:43 23° SSW 18:00:03 10° SSE daylight
28 Jan - 10:20:38 10° SSW 10:25:00 24° SSE 10:28:54 10° E daylight
28 Jan - 12:06:21 10° WSW 12:11:25 73° SSE 12:15:49 10° ENE daylight
28 Jan - 13:53:32 10° W 13:58:06 67° N 14:02:14 10° E daylight
28 Jan - 15:40:30 10° WNW 15:44:44 83° SSW 15:48:49 10° ESE daylight
28 Jan - 17:27:38 10° W 17:30:54 23° SSW 17:34:13 10° SSE daylight
29 Jan - 09:54:34 10° SSW 09:59:06 25° SSE 10:03:09 10° E daylight
29 Jan - 11:40:18 10° WSW 11:45:33 73° SSE 11:50:05 10° ENE daylight
29 Jan - 13:27:32 10° W 13:32:15 67° N 13:36:28 10° E daylight
29 Jan - 15:14:35 10° WNW 15:18:55 84° SSW 15:23:01 10° ESE daylight
29 Jan - 17:01:46 10° W 17:05:05 24° SSW 17:08:24 10° SSE daylight
30 Jan - 09:28:27 10° SSW 09:33:11 25° SSE 09:37:22 10° E daylight
30 Jan - 11:14:14 10° WSW 11:19:40 72° SSE 11:24:19 10° ENE daylight
30 Jan - 13:01:31 10° W 13:06:24 68° N 13:10:42 10° E daylight
30 Jan - 14:48:39 10° WNW 14:53:07 85° SSW 14:57:13 10° ESE daylight
30 Jan - 16:35:53 10° W 16:39:17 24° SSW 16:42:37 10° SSE daylight
31 Jan - 09:02:21 10° SSW 09:07:13 25° SSE 09:11:35 10° E daylight
31 Jan - 10:48:07 10° WSW 10:53:45 72° SSE 10:58:33 10° ENE daylight
31 Jan - 12:35:28 10° W 12:40:32 69° N 12:44:57 10° E daylight
31 Jan - 14:22:41 10° WNW 14:27:16 86° SSW 14:31:26 10° ESE daylight
31 Jan - 16:09:57 10° W 16:13:27 25° SSW 16:16:49 10° SSE daylight
01 Feb - 08:36:13 10° SSW 08:41:16 26° SSE 08:45:45 10° E daylight
01 Feb - 10:21:59 10° WSW 10:27:48 71° SSE 10:32:46 10° ENE daylight
01 Feb - 12:09:23 10° W 12:14:38 70° N 12:19:10 10° E daylight
01 Feb - 13:56:40 10° WNW 14:01:25 87° SSW 14:05:38 10° ESE daylight
01 Feb - 15:44:00 10° W 15:47:36 26° SSW 15:51:02 10° SSE daylight
02 Feb - 08:10:04 10° SSW 08:15:16 26° SSE 08:19:55 10° E daylight
02 Feb - 09:55:50 10° WSW 10:01:51 71° SSE 10:06:58 10° ENE daylight
02 Feb - 11:43:15 10° W 11:48:43 71° N 11:53:23 10° E daylight
02 Feb - 13:30:38 10° WNW 13:35:33 88° SSW 13:39:51 10° ESE daylight
02 Feb - 15:18:00 10° W 15:21:46 27° SSW 15:25:17 10° SSE daylight
03 Feb - 07:43:54 10° SSW 07:49:14 26° SSE 07:54:02 10° E daylight
03 Feb - 09:29:39 10° WSW 09:35:51 70° SSE 09:41:09 10° ENE daylight
03 Feb - 11:17:07 10° W 11:22:46 72° N 11:27:35 10° E daylight
03 Feb - 13:04:33 10° WNW 13:09:39 89° SSW 13:14:04 10° ESE daylight
03 Feb - 14:51:58 10° W 14:55:54 29° SSW 14:59:31 10° SSE daylight
